Time,TemperatureF,DewpointF,PressureIn,WindDirection,WindDirectionDegrees,WindSpeedMPH,WindSpeedGustMPH,Humidity,HourlyPrecipIn,Conditions,Clouds,dailyrainin,SoftwareType,DateUTC
2013-04-11 00:01:00,48.7,48.0,29.85,NNW,335,0.0,-999.0,97,-99.99,,,0.13,weatherlink.com 1.10,2013-04-11 04:01:00,
2013-04-11 00:16:00,48.3,48.0,29.83,NE,44,0.0,-999.0,97,-99.99,,,0.14,weatherlink.com 1.10,2013-04-11 04:16:00,
2013-04-11 00:31:00,48.0,47.0,29.84,NNE,22,0.0,-999.0,97,-99.99,,,0.14,weatherlink.com 1.10,2013-04-11 04:31:00,
2013-04-11 00:46:00,47.8,47.0,29.84,North,355,0.0,-999.0,97,-99.99,,,0.14,weatherlink.com 1.10,2013-04-11 04:46:00,
2013-04-11 01:01:00,47.7,47.0,29.84,NE,34,0.0,-999.0,97,-99.99,,,0.14,weatherlink.com 1.10,2013-04-11 05:01:00,
2013-04-11 01:46:00,47.6,47.0,29.82,NE,36,0.0,-999.0,97,-99.99,,,0.16,weatherlink.com 1.10,2013-04-11 05:46:00,
2013-04-11 02:01:00,47.4,47.0,29.82,NE,34,0.0,-999.0,97,-99.99,,,0.17,weatherlink.com 1.10,2013-04-11 06:01:00,
2013-04-11 02:16:00,47.3,47.0,29.80,NNE,28,0.0,-999.0,97,-99.99,,,0.17,weatherlink.com 1.10,2013-04-11 06:16:00,
2013-04-11 02:31:00,47.2,46.0,29.80,ENE,57,0.0,-999.0,97,-99.99,,,0.17,weatherlink.com 1.10,2013-04-11 06:31:00,
2013-04-11 02:46:00,47.1,46.0,29.79,ENE,57,0.0,-999.0,97,-99.99,,,0.17,weatherlink.com 1.10,2013-04-11 06:46:00,
2013-04-11 03:01:00,47.2,46.0,29.80,NNW,341,0.0,-999.0,97,-99.99,,,0.17,weatherlink.com 1.10,2013-04-11 07:01:00,
2013-04-11 03:16:00,47.1,46.0,29.81,NNE,15,0.0,-999.0,97,-99.99,,,0.17,weatherlink.com 1.10,2013-04-11 07:16:00,
2013-04-11 03:31:00,47.3,47.0,29.81,NNE,19,0.0,-999.0,97,-99.99,,,0.17,weatherlink.com 1.10,2013-04-11 07:31:00,
2013-04-11 03:46:00,47.4,47.0,29.80,NNE,19,0.0,-999.0,98,-99.99,,,0.17,weatherlink.com 1.10,2013-04-11 07:46:00,
2013-04-11 04:01:00,47.4,47.0,29.81,NNE,19,0.0,-999.0,98,-99.99,,,0.17,weatherlink.com 1.10,2013-04-11 08:01:00,
2013-04-11 04:16:00,47.7,47.0,29.81,NNE,13,0.0,-999.0,97,-99.99,,,0.17,weatherlink.com 1.10,2013-04-11 08:16:00,
2013-04-11 04:46:00,47.5,47.0,29.81,NW,313,0.0,-999.0,98,-99.99,,,0.17,weatherlink.com 1.10,2013-04-11 08:46:00,
2013-04-11 05:01:00,47.3,47.0,29.80,NNW,330,0.0,-999.0,97,-99.99,,,0.17,weatherlink.com 1.10,2013-04-11 09:01:00,
2013-04-11 05:16:00,47.0,46.0,29.82,NW,319,0.0,-999.0,97,-99.99,,,0.17,weatherlink.com 1.10,2013-04-11 09:16:00,
2013-04-11 05:31:00,46.8,46.0,29.84,North,351,0.0,-999.0,97,-99.99,,,0.18,weatherlink.com 1.10,2013-04-11 09:31:00,
2013-04-11 05:46:00,46.6,46.0,29.84,NNW,327,0.0,-999.0,97,-99.99,,,0.18,weatherlink.com 1.10,2013-04-11 09:46:00,
2013-04-11 06:01:00,46.4,46.0,29.85,NNW,348,0.0,-999.0,97,-99.99,,,0.18,weatherlink.com 1.10,2013-04-11 10:01:00,
2013-04-11 06:16:00,46.0,45.0,29.86,NW,321,0.0,-999.0,97,-99.99,,,0.18,weatherlink.com 1.10,2013-04-11 10:16:00,
2013-04-11 06:31:00,45.7,45.0,29.87,NNW,343,0.0,-999.0,97,-99.99,,,0.18,weatherlink.com 1.10,2013-04-11 10:31:00,
2013-04-11 06:46:00,45.4,45.0,29.89,NW,322,0.0,-999.0,97,-99.99,,,0.18,weatherlink.com 1.10,2013-04-11 10:46:00,
2013-04-11 07:01:00,45.2,44.0,29.90,NNW,336,0.0,-999.0,97,-99.99,,,0.18,weatherlink.com 1.10,2013-04-11 11:01:00,
2013-04-11 07:16:00,44.9,44.0,29.90,NW,317,0.0,-999.0,97,-99.99,,,0.18,weatherlink.com 1.10,2013-04-11 11:16:00,
2013-04-11 07:31:00,44.8,44.0,29.91,North,349,0.0,-999.0,97,-99.99,,,0.18,weatherlink.com 1.10,2013-04-11 11:31:00,
2013-04-11 07:46:00,44.9,44.0,29.91,NW,322,0.0,-999.0,97,-99.99,,,0.18,weatherlink.com 1.10,2013-04-11 11:46:00,
2013-04-11 08:01:00,45.1,44.0,29.92,North,355,0.0,-999.0,97,-99.99,,,0.18,weatherlink.com 1.10,2013-04-11 12:01:00,
2013-04-11 08:16:00,45.2,44.0,29.93,North,360,0.0,-999.0,97,-99.99,,,0.18,weatherlink.com 1.10,2013-04-11 12:16:00,
2013-04-11 08:31:00,45.3,45.0,29.91,NNE,20,0.0,-999.0,97,-99.99,,,0.18,weatherlink.com 1.10,2013-04-11 12:31:00,
2013-04-11 08:46:00,45.5,45.0,29.92,NNE,32,0.0,-999.0,96,-99.99,,,0.18,weatherlink.com 1.10,2013-04-11 12:46:00,
2013-04-11 09:01:00,45.8,44.0,29.92,NNE,18,0.0,-999.0,94,-99.99,,,0.18,weatherlink.com 1.10,2013-04-11 13:01:00,
2013-04-11 09:31:00,46.0,44.0,29.95,North,355,0.0,-999.0,92,-99.99,,,0.18,weatherlink.com 1.10,2013-04-11 13:31:00,
2013-04-11 09:46:00,46.3,44.0,29.95,NNE,17,0.0,-999.0,92,-99.99,,,0.18,weatherlink.com 1.10,2013-04-11 13:46:00,
2013-04-11 10:01:00,46.3,44.0,29.96,North,5,0.0,-999.0,90,-99.99,,,0.18,weatherlink.com 1.10,2013-04-11 14:01:00,
2013-04-11 10:16:00,45.9,43.0,29.96,NNE,15,0.0,-999.0,90,-99.99,,,0.18,weatherlink.com 1.10,2013-04-11 14:16:00,
2013-04-11 10:31:00,45.5,43.0,29.96,NNE,28,0.0,-999.0,92,-99.99,,,0.18,weatherlink.com 1.10,2013-04-11 14:31:00,
2013-04-11 11:01:00,44.2,43.0,29.98,NNE,21,0.0,-999.0,94,-99.99,,,0.19,weatherlink.com 1.10,2013-04-11 15:01:00,
2013-04-11 11:16:00,44.4,43.0,29.98,NNW,338,0.0,-999.0,94,-99.99,,,0.19,weatherlink.com 1.10,2013-04-11 15:16:00,
2013-04-11 11:31:00,45.0,43.0,29.99,NW,323,0.0,-999.0,93,-99.99,,,0.19,weatherlink.com 1.10,2013-04-11 15:31:00,
2013-04-11 12:31:00,48.6,43.0,29.99,North,355,0.0,-999.0,80,-99.99,,,0.19,weatherlink.com 1.10,2013-04-11 16:31:00,
2013-04-11 12:46:00,49.4,42.0,29.99,NNW,340,0.0,-999.0,76,-99.99,,,0.19,weatherlink.com 1.10,2013-04-11 16:46:00,
2013-04-11 13:01:00,50.6,42.0,29.98,East,81,0.0,-999.0,73,-99.99,,,0.19,weatherlink.com 1.10,2013-04-11 17:01:00,
2013-04-11 13:16:00,50.2,42.0,29.99,NE,55,0.0,-999.0,74,-99.99,,,0.19,weatherlink.com 1.10,2013-04-11 17:16:00,
2013-04-11 13:31:00,51.8,43.0,29.98,NW,308,0.0,-999.0,71,-99.99,,,0.19,weatherlink.com 1.10,2013-04-11 17:31:00,
2013-04-11 13:46:00,51.2,42.0,29.98,NNE,32,0.0,-999.0,71,-99.99,,,0.19,weatherlink.com 1.10,2013-04-11 17:46:00,
2013-04-11 14:01:00,51.3,42.0,29.98,NW,324,0.0,-999.0,70,-99.99,,,0.19,weatherlink.com 1.10,2013-04-11 18:01:00,
2013-04-11 14:31:00,51.8,38.0,29.98,NW,310,0.0,-999.0,60,-99.99,,,0.19,weatherlink.com 1.10,2013-04-11 18:31:00,
2013-04-11 14:46:00,51.3,37.0,29.98,NNE,13,0.0,-999.0,58,-99.99,,,0.19,weatherlink.com 1.10,2013-04-11 18:46:00,
2013-04-11 15:16:00,50.0,35.0,29.99,North,355,0.0,-999.0,56,-99.99,,,0.19,weatherlink.com 1.10,2013-04-11 19:16:00,
2013-04-11 15:31:00,50.4,35.0,29.98,WNW,294,0.0,-999.0,56,-99.99,,,0.19,weatherlink.com 1.10,2013-04-11 19:31:00,
2013-04-11 15:46:00,49.9,34.0,29.98,NNW,333,0.0,-999.0,55,-99.99,,,0.19,weatherlink.com 1.10,2013-04-11 19:46:00,
2013-04-11 16:01:00,49.6,32.0,29.98,NNW,338,0.0,-999.0,52,-99.99,,,0.19,weatherlink.com 1.10,2013-04-11 20:01:00,
2013-04-11 16:16:00,49.2,32.0,29.98,NNW,339,0.0,-999.0,52,-99.99,,,0.19,weatherlink.com 1.10,2013-04-11 20:16:00,
2013-04-11 16:31:00,48.6,31.0,29.99,NNW,346,0.0,-999.0,50,-99.99,,,0.19,weatherlink.com 1.10,2013-04-11 20:31:00,
2013-04-11 16:46:00,48.4,31.0,30.00,NW,321,0.0,-999.0,52,-99.99,,,0.19,weatherlink.com 1.10,2013-04-11 20:46:00,
2013-04-11 17:16:00,48.2,31.0,30.01,North,360,0.0,-999.0,51,-99.99,,,0.19,weatherlink.com 1.10,2013-04-11 21:16:00,
2013-04-11 17:31:00,47.9,30.0,30.01,NNE,20,0.0,-999.0,51,-99.99,,,0.19,weatherlink.com 1.10,2013-04-11 21:31:00,
2013-04-11 18:01:00,47.0,30.0,30.03,NNW,336,0.0,-999.0,52,-99.99,,,0.19,weatherlink.com 1.10,2013-04-11 22:01:00,
2013-04-11 18:16:00,46.6,30.0,30.04,NW,326,0.0,-999.0,53,-99.99,,,0.19,weatherlink.com 1.10,2013-04-11 22:16:00,
2013-04-11 18:46:00,45.7,31.0,30.05,North,350,0.0,-999.0,56,-99.99,,,0.19,weatherlink.com 1.10,2013-04-11 22:46:00,
2013-04-11 19:01:00,45.2,28.0,30.05,NNW,342,0.0,-999.0,52,-99.99,,,0.19,weatherlink.com 1.10,2013-04-11 23:01:00,
2013-04-11 19:16:00,44.3,28.0,30.04,NNW,338,0.0,-999.0,54,-99.99,,,0.19,weatherlink.com 1.10,2013-04-11 23:16:00,
2013-04-11 19:31:00,43.8,28.0,30.05,NNW,338,0.0,-999.0,55,-99.99,,,0.19,weatherlink.com 1.10,2013-04-11 23:31:00,
2013-04-11 19:46:00,43.5,28.0,30.05,NNE,23,0.0,-999.0,55,-99.99,,,0.00,weatherlink.com 1.10,2013-04-11 23:46:00,
2013-04-11 20:00:00,43.2,28.0,30.05,NNE,28,0.0,-999.0,56,-99.99,,,0.00,weatherlink.com 1.10,2013-04-12 00:00:00,
2013-04-11 20:16:00,43.1,28.0,30.06,North,11,0.0,-999.0,56,-99.99,,,0.00,weatherlink.com 1.10,2013-04-12 00:16:00,
2013-04-11 20:31:00,42.9,29.0,30.06,NNW,342,0.0,-999.0,58,-99.99,,,0.00,weatherlink.com 1.10,2013-04-12 00:31:00,
2013-04-11 20:46:00,42.7,30.0,30.07,NNE,18,0.0,-999.0,60,-99.99,,,0.00,weatherlink.com 1.10,2013-04-12 00:46:00,
2013-04-11 21:01:00,42.5,30.0,30.07,NW,308,0.0,-999.0,61,-99.99,,,0.00,weatherlink.com 1.10,2013-04-12 01:01:00,
2013-04-11 21:16:00,42.3,30.0,30.08,NNE,15,0.0,-999.0,62,-99.99,,,0.00,weatherlink.com 1.10,2013-04-12 01:16:00,
2013-04-11 21:31:00,42.1,30.0,30.08,NW,318,0.0,-999.0,63,-99.99,,,0.00,weatherlink.com 1.10,2013-04-12 01:31:00,
2013-04-11 21:46:00,42.0,30.0,30.09,NNW,342,0.0,-999.0,62,-99.99,,,0.00,weatherlink.com 1.10,2013-04-12 01:46:00,
2013-04-11 22:01:00,41.8,31.0,30.09,NNW,342,0.0,-999.0,65,-99.99,,,0.00,weatherlink.com 1.10,2013-04-12 02:01:00,
2013-04-11 22:16:00,41.8,32.0,30.09,NNW,343,0.0,-999.0,67,-99.99,,,0.00,weatherlink.com 1.10,2013-04-12 02:16:00,
2013-04-11 22:31:00,41.2,32.0,30.11,NNW,340,0.0,-999.0,71,-99.99,,,0.00,weatherlink.com 1.10,2013-04-12 02:31:00,
2013-04-11 22:47:00,40.8,33.0,30.10,NNW,333,0.0,-999.0,73,-99.99,,,0.00,weatherlink.com 1.10,2013-04-12 02:47:00,
2013-04-11 23:01:00,40.2,34.0,30.10,NNW,341,0.0,-999.0,79,-99.99,,,0.00,weatherlink.com 1.10,2013-04-12 03:01:00,
2013-04-11 23:16:00,38.9,35.0,30.10,NNW,341,0.0,-999.0,87,-99.99,,,0.01,weatherlink.com 1.10,2013-04-12 03:16:00,
2013-04-11 23:46:00,38.8,37.0,30.11,NNW,341,0.0,-999.0,92,-99.99,,,0.01,weatherlink.com 1.10,2013-04-12 03:46:00,